(°C)
-8°
-7°
-5°
-3°
-2°
-1°
-1°
(°C)
-13°
-12°
-10°
-8°
-6°
-5°
-5°
SSI
SSI
SSI
SSI
S
S
SSZ
(km/h)
9-17
9-16
8-15
6-13
5-11
4-9
3-7
(mm)
0
0
0
0
0
0
0
(%)
0
0
0
0
0
0
0

Podizanje Sunca

/ 21.8°
sun-icon
UV 2
07:16
17:11
Opadajući mesec (232°)
22:00
10:06

METAR za Wilmington Manor (KILG)

Vreme Uslovi Temperatura/
Tačka rose
Vetar Vidljivost Prognoza Oblaci Pritisak Promena Neobrađeno
VFR -7.8°C / °C 20º 8kt >10km - Clear 1031 - KILG 221351Z 02008KT 10SM CLR M08/M18 A3045 RMK AO2 SLP313 T10781183 $
VFR -9.4°C / °C 20º 8kt >10km - Few Clouds 3800ft 1030 - KILG 221251Z 02008KT 10SM FEW038 M09/M18 A3044 RMK AO2 SLP307 T10941178 $
VFR -8.9°C / °C 350º 9kt >10km - Overcast 3700ft 1031 - KILG 221151Z 35009KT 10SM OVC037 M09/M18 A3045 RMK AO2 SLP313 T10891183 11056 21094 53014 $
VFR -9.4°C / °C 360º 7kt >10km - Clear 1030 - KILG 221051Z AUTO 36007KT 10SM CLR M09/M18 A3042 RMK AO2 SLP302 T10941178 $
VFR -8.9°C / °C 350º 7kt >10km - Clear 1030 - KILG 220951Z AUTO 35007KT 10SM CLR M09/M18 A3041 RMK AO2 SLP300 T10891178 $
VFR -8.3°C / °C 360º 8kt >10km - Clear 1029 - KILG 220851Z AUTO 36008KT 10SM CLR M08/M17 A3041 RMK AO2 SLP298 T10831172 58017 $
VFR -7.2°C / °C 360º 7kt >10km - Few Clouds 3400ft 1030 - KILG 220751Z AUTO 36007KT 10SM FEW034 M07/M17 A3043 RMK AO2 SLP306 T10721172 $
VFR -6.7°C / °C 20º 9kt >10km - Clear 1031 - KILG 220651Z AUTO 02009KT 10SM CLR M07/M17 A3044 RMK AO2 SLP310 T10671172 $
VFR -5.6°C / °C 20º 11kt >10km - Clear 1031 - KILG 220551Z AUTO 02011KT 10SM CLR M06/M18 A3046 RMK AO2 SLP315 T10561183 11044 21056 58017 $
VFR -5°C / °C 30º 12kt >10km - Clear 1032 - KILG 220451Z AUTO 03012KT 10SM CLR M05/M19 A3049 RMK AO2 SLP324 T10501194 410281089 $
VFR -4.4°C / °C 40º 14kt >10km - Clear 1033 - KILG 220351Z AUTO 04014KT 10SM CLR M04/M20 A3051 RMK AO2 SLP332 T10441200 $
VFR -4.4°C / °C 30º 9kt >10km - Clear 1033 - KILG 220251Z AUTO 03009KT 10SM CLR M04/M18 A3051 RMK AO2 SLP332 T10441178 58009 $
VFR -4.4°C / °C 40º 12kt >10km - Clear 1033 - KILG 220151Z AUTO 04012KT 10SM CLR M04/M18 A3052 RMK AO2 SLP337 T10441178 $
VFR -4.4°C / °C 30º 11kt >10km - Clear 1033 - KILG 220051Z 03011KT 10SM CLR M04/M16 A3053 RMK AO2 SLP338 T10441161 $
VFR -4.4°C / °C 10º 7kt >10km - Clear 1034 - KILG 212351Z 01007KT 10SM CLR M04/M15 A3054 RMK AO2 SLP341 T10441150 11028 21044 52010 $
VFR -4.4°C / °C 20º 8kt >10km - Clear 1033 - KILG 212251Z 02008KT 10SM CLR M04/M16 A3052 RMK AO2 SLP337 T10441156 $
VFR -3.9°C / °C 20º 8kt >10km - Clear 1033 - KILG 212151Z 02008KT 10SM CLR M04/M16 A3052 RMK AO2 SLP335 T10391156 $
VFR -3.9°C / °C 20º 10kt >10km - Clear 1033 - KILG 212051Z 02010KT 10SM CLR M04/M16 A3051 RMK AO2 SLP331 T10391156 55006
VFR -2.8°C / °C 10º 6kt >10km - Clear 1032 - KILG 211951Z 01006KT 10SM CLR M03/M16 A3050 RMK AO2 SLP328 T10281156 $
VFR -3.3°C / °C 50º 8kt >10km - Clear 1032 - KILG 211851Z 05008KT 10SM CLR M03/M16 A3050 RMK AO2 SLP329 T10331161 $
VFR -4.4°C / °C 40º 9kt >10km - Clear 1033 - KILG 211751Z 04009KT 10SM CLR M04/M16 A3052 RMK AO2 SLP337 T10441161 11039 21089 58014 $
VFR -5°C / °C 10º 10kt Gust 17kt >10km - Clear 1034 - KILG 211651Z 01010G17KT 10SM CLR M05/M16 A3054 RMK AO2 SLP344 T10501156 $
VFR -5.6°C / °C 20º 8kt >10km - Clear 1035 - KILG 211551Z 02008KT 10SM CLR M06/M16 A3057 RMK AO2 SLP352 T10561156 $
VFR -7.2°C / °C 350º 13kt >10km - Clear 1035 - KILG 211451Z 35013KT 10SM CLR M07/M16 A3057 RMK AO2 SLP351 T10721156 51015 $

VFR

-7.8°C / °C

[Više]
Vetar 20º 8kt
Vidljivost >10km
Prognoza -
Oblaci Clear
Pritisak 1031
Promena -
Neobrađeno KILG 221351Z 02008KT 10SM CLR M08/M18 A3045 RMK AO2 SLP313 T10781183 $

VFR

-9.4°C / °C

[Više]
Vetar 20º 8kt
Vidljivost >10km
Prognoza -
Oblaci Few Clouds 3800ft
Pritisak 1030
Promena -
Neobrađeno KILG 221251Z 02008KT 10SM FEW038 M09/M18 A3044 RMK AO2 SLP307 T10941178 $

VFR

-8.9°C / °C

[Više]
Vetar 350º 9kt
Vidljivost >10km
Prognoza -
Oblaci Overcast 3700ft
Pritisak 1031
Promena -
Neobrađeno KILG 221151Z 35009KT 10SM OVC037 M09/M18 A3045 RMK AO2 SLP313 T10891183 11056 21094 53014 $

VFR

-9.4°C / °C

[Više]
Vetar 360º 7kt
Vidljivost >10km
Prognoza -
Oblaci Clear
Pritisak 1030
Promena -
Neobrađeno KILG 221051Z AUTO 36007KT 10SM CLR M09/M18 A3042 RMK AO2 SLP302 T10941178 $

VFR

-8.9°C / °C

[Više]
Vetar 350º 7kt
Vidljivost >10km
Prognoza -
Oblaci Clear
Pritisak 1030
Promena -
Neobrađeno KILG 220951Z AUTO 35007KT 10SM CLR M09/M18 A3041 RMK AO2 SLP300 T10891178 $

VFR

-8.3°C / °C

[Više]
Vetar 360º 8kt
Vidljivost >10km
Prognoza -
Oblaci Clear
Pritisak 1029
Promena -
Neobrađeno KILG 220851Z AUTO 36008KT 10SM CLR M08/M17 A3041 RMK AO2 SLP298 T10831172 58017 $

VFR

-7.2°C / °C

[Više]
Vetar 360º 7kt
Vidljivost >10km
Prognoza -
Oblaci Few Clouds 3400ft
Pritisak 1030
Promena -
Neobrađeno KILG 220751Z AUTO 36007KT 10SM FEW034 M07/M17 A3043 RMK AO2 SLP306 T10721172 $

VFR

-6.7°C / °C

[Više]
Vetar 20º 9kt
Vidljivost >10km
Prognoza -
Oblaci Clear
Pritisak 1031
Promena -
Neobrađeno KILG 220651Z AUTO 02009KT 10SM CLR M07/M17 A3044 RMK AO2 SLP310 T10671172 $

VFR

-5.6°C / °C

[Više]
Vetar 20º 11kt
Vidljivost >10km
Prognoza -
Oblaci Clear
Pritisak 1031
Promena -
Neobrađeno KILG 220551Z AUTO 02011KT 10SM CLR M06/M18 A3046 RMK AO2 SLP315 T10561183 11044 21056 58017 $

VFR

-5°C / °C

[Više]
Vetar 30º 12kt
Vidljivost >10km
Prognoza -
Oblaci Clear
Pritisak 1032
Promena -
Neobrađeno KILG 220451Z AUTO 03012KT 10SM CLR M05/M19 A3049 RMK AO2 SLP324 T10501194 410281089 $

VFR

-4.4°C / °C

[Više]
Vetar 40º 14kt
Vidljivost >10km
Prognoza -
Oblaci Clear
Pritisak 1033
Promena -
Neobrađeno KILG 220351Z AUTO 04014KT 10SM CLR M04/M20 A3051 RMK AO2 SLP332 T10441200 $

VFR

-4.4°C / °C

[Više]
Vetar 30º 9kt
Vidljivost >10km
Prognoza -
Oblaci Clear
Pritisak 1033
Promena -
Neobrađeno KILG 220251Z AUTO 03009KT 10SM CLR M04/M18 A3051 RMK AO2 SLP332 T10441178 58009 $

VFR

-4.4°C / °C

[Više]
Vetar 40º 12kt
Vidljivost >10km
Prognoza -
Oblaci Clear
Pritisak 1033
Promena -
Neobrađeno KILG 220151Z AUTO 04012KT 10SM CLR M04/M18 A3052 RMK AO2 SLP337 T10441178 $

VFR

-4.4°C / °C

[Više]
Vetar 30º 11kt
Vidljivost >10km
Prognoza -
Oblaci Clear
Pritisak 1033
Promena -
Neobrađeno KILG 220051Z 03011KT 10SM CLR M04/M16 A3053 RMK AO2 SLP338 T10441161 $

VFR

-4.4°C / °C

[Više]
Vetar 10º 7kt
Vidljivost >10km
Prognoza -
Oblaci Clear
Pritisak 1034
Promena -
Neobrađeno KILG 212351Z 01007KT 10SM CLR M04/M15 A3054 RMK AO2 SLP341 T10441150 11028 21044 52010 $

VFR

-4.4°C / °C

[Više]
Vetar 20º 8kt
Vidljivost >10km
Prognoza -
Oblaci Clear
Pritisak 1033
Promena -
Neobrađeno KILG 212251Z 02008KT 10SM CLR M04/M16 A3052 RMK AO2 SLP337 T10441156 $

VFR

-3.9°C / °C

[Više]
Vetar 20º 8kt
Vidljivost >10km
Prognoza -
Oblaci Clear
Pritisak 1033
Promena -
Neobrađeno KILG 212151Z 02008KT 10SM CLR M04/M16 A3052 RMK AO2 SLP335 T10391156 $

VFR

-3.9°C / °C

[Više]
Vetar 20º 10kt
Vidljivost >10km
Prognoza -
Oblaci Clear
Pritisak 1033
Promena -
Neobrađeno KILG 212051Z 02010KT 10SM CLR M04/M16 A3051 RMK AO2 SLP331 T10391156 55006

VFR

-2.8°C / °C

[Više]
Vetar 10º 6kt
Vidljivost >10km
Prognoza -
Oblaci Clear
Pritisak 1032
Promena -
Neobrađeno KILG 211951Z 01006KT 10SM CLR M03/M16 A3050 RMK AO2 SLP328 T10281156 $

VFR

-3.3°C / °C

[Više]
Vetar 50º 8kt
Vidljivost >10km
Prognoza -
Oblaci Clear
Pritisak 1032
Promena -
Neobrađeno KILG 211851Z 05008KT 10SM CLR M03/M16 A3050 RMK AO2 SLP329 T10331161 $

VFR

-4.4°C / °C

[Više]
Vetar 40º 9kt
Vidljivost >10km
Prognoza -
Oblaci Clear
Pritisak 1033
Promena -
Neobrađeno KILG 211751Z 04009KT 10SM CLR M04/M16 A3052 RMK AO2 SLP337 T10441161 11039 21089 58014 $

VFR

-5°C / °C

[Više]
Vetar 10º 10kt Gust 17kt
Vidljivost >10km
Prognoza -
Oblaci Clear
Pritisak 1034
Promena -
Neobrađeno KILG 211651Z 01010G17KT 10SM CLR M05/M16 A3054 RMK AO2 SLP344 T10501156 $

VFR

-5.6°C / °C

[Više]
Vetar 20º 8kt
Vidljivost >10km
Prognoza -
Oblaci Clear
Pritisak 1035
Promena -
Neobrađeno KILG 211551Z 02008KT 10SM CLR M06/M16 A3057 RMK AO2 SLP352 T10561156 $

VFR

-7.2°C / °C

[Više]
Vetar 350º 13kt
Vidljivost >10km
Prognoza -
Oblaci Clear
Pritisak 1035
Promena -
Neobrađeno KILG 211451Z 35013KT 10SM CLR M07/M16 A3057 RMK AO2 SLP351 T10721156 51015 $

TAF za Wilmington Manor (KILG)

From till


From till Wind 10º 7kt. Visibility 10km or more. Few Clouds 25000ft.
From till Wind variable 3kt. Visibility 10km or more. Few Clouds 20000ft.
From till Wind 240º 4kt. Visibility 10km or more. Scattered Clouds 20000ft.

Neobrađeno: KILG 221120Z 2212/2312 01007KT P6SM FEW250 FM221900 VRB03KT P6SM FEW200 FM230700 24004KT P6SM SCT200

Radar i padavine kratka prognoza za Wilmington Manor

Rominjati
Lak
Umjereno
Teška
Vrlo teško
Zdravo

Marker lokacije postavljen je na Wilmington Manor. Ova animacija prikazuje radar padavina za poslednji sat, kao i 1h prognozu. Kiša ili slab snijeg mogu biti nevidljivi za radar. Intenzitet padavina je označen bojom, u rasponu od svetloplave do narandžaste.

Trenutni satelitski snimci za Wilmington Manor, Сједињене Државе

Marker lokacije postavljen je na Wilmington Manor. [Više]

Satelitski snimci u realnom vremenu kombinuju vidljivu svetlost tokom dana sa infracrvenim zračenjem tokom noći. Noću slika nije tamna jer infracrveno zračenje može otkriti temperaturne razlike. Nažalost, niski oblaci i magla teško se mogu razlikovati od temperature zemlje tako da mogu biti skoro nevidljivi tokom noći. Meteosat satelitski snimci za Evropu se ažuriraju u realnom vremenu na svakih 5 minuta. Slnimci GOES-16/GOES-17 (Severna i Južna Amerika) and Himawari (Azia) ažuriraju se na svakih 10 minuta.